﻿_id,日時,平均風速(m/s),平均風向,最大瞬間風速(m/s),最大風速時風向,気温(℃),湿度(%),10分間移動積算雨量(mm),1時間移動積算雨量(mm),日雨量(mm),累計雨量(mm)
1,2021-03-22T00:00:00,3.6,北,7.1,北北西,8.3,87.3,0,0,21,21
2,2021-03-22T00:01:00,3.5,北,7.1,北北西,8.3,87.4,0,0,0,21
3,2021-03-22T00:02:00,3.3,北,6,北北西,8.3,87.6,0,0,0,21
4,2021-03-22T00:03:00,3.1,北,6,北北西,8.4,87.3,0,0,0,21
5,2021-03-22T00:04:00,3,北,6,北北西,8.4,86.7,0,0,0,21
6,2021-03-22T00:05:00,2.9,北,6,北北西,8.4,86.1,0,0,0,21
7,2021-03-22T00:06:00,2.8,北,5.4,北北西,8.3,86.3,0,0,0,21
8,2021-03-22T00:07:00,2.8,北,5.3,北,8.2,86.7,0,0,0,21
9,2021-03-22T00:08:00,2.8,北,5.3,北,8.3,86.3,0,0,0,21
10,2021-03-22T00:09:00,2.7,北,5.2,北,8.3,86.5,0,0,0,21
11,2021-03-22T00:10:00,2.5,北,5.2,北,8.2,87.1,0,0,0,21
12,2021-03-22T00:11:00,2.4,北,5.2,北,8.1,88,0,0,0,21
13,2021-03-22T00:12:00,2.3,北,5.2,北,8.1,88.5,0,0,0,21
14,2021-03-22T00:13:00,2.3,北,5.2,北,8.2,88.7,0,0,0,21
15,2021-03-22T00:14:00,2.4,北,6,北,8.2,88.7,0,0,0,21
16,2021-03-22T00:15:00,2.6,北,6,北,8.2,88.3,0,0,0,21
17,2021-03-22T00:16:00,2.6,北,6,北,8.2,88,0,0,0,21
18,2021-03-22T00:17:00,2.6,北,6,北,8.1,87.7,0,0,0,21
19,2021-03-22T00:18:00,2.6,北,6,北,8.1,87.4,0,0,0,21
20,2021-03-22T00:19:00,2.7,北,6,北,8.2,87.1,0,0,0,21
21,2021-03-22T00:20:00,2.8,北,6,北,8.2,86.8,0,0,0,21
22,2021-03-22T00:21:00,3,北北西,6,北,8.2,86.3,0,0,0,21
23,2021-03-22T00:22:00,2.9,北北西,6,北,8.2,86.1,0,0,0,21
24,2021-03-22T00:23:00,3,北北西,6,北,8.2,86.3,0,0,0,21
25,2021-03-22T00:24:00,3.1,北北西,6.4,北,8.2,86.3,0,0,0,21
26,2021-03-22T00:25:00,3.1,北北西,6.4,北,8.2,85.7,0,0,0,21
27,2021-03-22T00:26:00,3.2,北北西,6.4,北,8.3,85,0,0,0,21
28,2021-03-22T00:27:00,3.2,北北西,6.4,北,8.2,84.5,0,0,0,21
29,2021-03-22T00:28:00,3.1,北北西,6.4,北,8.2,84.5,0,0,0,21
30,2021-03-22T00:29:00,3.1,北北西,6.4,北,8.2,84.8,0,0,0,21
31,2021-03-22T00:30:00,3.1,北北西,6.4,北,8.2,85.4,0,0,0,21
32,2021-03-22T00:31:00,3.2,北北西,6.4,北,8.2,84.8,0,0,0,21
33,2021-03-22T00:32:00,3.2,北北西,6.4,北,8.3,83.8,0,0,0,21
34,2021-03-22T00:33:00,3,北北西,6.4,北,8.3,83.2,0,0,0,21
35,2021-03-22T00:34:00,2.8,北北西,5.7,北,8.3,83.3,0,0,0,21
36,2021-03-22T00:35:00,2.6,北北西,5.3,北西,8.2,83.7,0,0,0,21
37,2021-03-22T00:36:00,2.5,北北西,5.3,北西,8.1,84.2,0,0,0,21
38,2021-03-22T00:37:00,2.7,北北西,5.6,北北西,8.1,84.6,0,0,0,21
39,2021-03-22T00:38:00,2.9,北北西,5.8,北北西,8.2,83.7,0,0,0,21
40,2021-03-22T00:39:00,2.9,北北西,5.8,北北西,8.2,82.7,0,0,0,21
41,2021-03-22T00:40:00,2.9,北北西,5.8,北北西,8.1,82.3,0,0,0,21
42,2021-03-22T00:41:00,2.9,北北西,5.8,北北西,8.1,82.5,0,0,0,21
43,2021-03-22T00:42:00,3,北北西,5.8,北北西,8.1,82.1,0,0,0,21
44,2021-03-22T00:43:00,3.1,北北西,5.8,北北西,8.1,81.7,0,0,0,21
45,2021-03-22T00:44:00,3.3,北北西,5.8,北北西,8.1,81.1,0,0,0,21
46,2021-03-22T00:45:00,3.5,北北西,5.8,北北西,8.1,79.7,0,0,0,21
47,2021-03-22T00:46:00,3.6,北西,5.8,北北西,8.1,79.2,0,0,0,21
48,2021-03-22T00:47:00,3.7,北西,7.6,西北西,8.1,79.2,0,0,0,21
49,2021-03-22T00:48:00,3.6,北西,7.6,西北西,8.2,77.7,0,0,0,21
50,2021-03-22T00:49:00,3.8,北西,7.8,西,8.2,76.8,0,0,0,21
51,2021-03-22T00:50:00,4,北西,7.8,西,8.1,77.6,0,0,0,21
52,2021-03-22T00:51:00,4.1,北西,7.8,西,8,78.5,0,0,0,21
53,2021-03-22T00:52:00,4.2,北西,7.8,西,8.2,77.7,0,0,0,21
54,2021-03-22T00:53:00,4.4,北西,7.8,西,8.2,76.7,0,0,0,21
55,2021-03-22T00:54:00,4.5,北西,7.8,西,8.2,76,0,0,0,21
56,2021-03-22T00:55:00,4.7,北西,7.8,西,8.2,75.9,0,0,0,21
57,2021-03-22T00:56:00,4.8,北西,7.8,西,8.2,75.6,0,0,0,21
58,2021-03-22T00:57:00,4.7,北西,7.8,西,8.3,75.2,0,0,0,21
59,2021-03-22T00:58:00,4.8,北西,7.8,西,8.2,75.1,0,0,0,21
60,2021-03-22T00:59:00,4.6,北西,7,北西,8.2,75.5,0,0,0,21
61,2021-03-22T01:00:00,4.5,北西,7,北西,8.1,76.2,0,0,0,21
62,2021-03-22T01:01:00,4.5,北西,7,北西,8.1,76.7,0,0,0,21
63,2021-03-22T01:02:00,4.3,北西,7,北西,8,76.8,0,0,0,21
64,2021-03-22T01:03:00,4.1,北西,7,北西,8,77.7,0,0,0,21
65,2021-03-22T01:04:00,3.9,北西,6.7,西北西,8,77.9,0,0,0,21
66,2021-03-22T01:05:00,3.7,北西,6.7,西北西,8,78,0,0,0,21
67,2021-03-22T01:06:00,3.6,北西,6.2,北西,8,78.2,0,0,0,21
68,2021-03-22T01:07:00,3.4,北西,6.2,北西,7.9,78.4,0,0,0,21
69,2021-03-22T01:08:00,3.2,北西,4.8,西北西,7.9,78.9,0,0,0,21
70,2021-03-22T01:09:00,3.1,北西,4.8,西北西,7.9,79,0,0,0,21
71,2021-03-22T01:10:00,3,北西,4.8,西北西,7.8,79.4,0,0,0,21
72,2021-03-22T01:11:00,2.8,北西,4.6,西北西,7.8,80.3,0,0,0,21
73,2021-03-22T01:12:00,2.8,北西,4.6,西北西,7.8,80.7,0,0,0,21
74,2021-03-22T01:13:00,2.7,北西,4.6,西北西,7.9,80.4,0,0,0,21
75,2021-03-22T01:14:00,2.6,北西,4.6,西北西,7.8,80.3,0,0,0,21
76,2021-03-22T01:15:00,2.5,北北西,4.3,北北西,7.7,81.2,0,0,0,21
77,2021-03-22T01:16:00,2.4,北西,3.7,北西,7.7,82.3,0,0,0,21
78,2021-03-22T01:17:00,2.4,北西,3.7,北西,7.8,82,0,0,0,21
79,2021-03-22T01:18:00,2.3,北西,3.6,北北西,7.8,81.1,0,0,0,21
80,2021-03-22T01:19:00,2.2,北西,3.5,西北西,7.8,81.1,0,0,0,21
81,2021-03-22T01:20:00,2.3,北西,3.5,西北西,7.7,81.8,0,0,0,21
82,2021-03-22T01:21:00,2.3,北西,3.5,西北西,7.6,82.8,0,0,0,21
83,2021-03-22T01:22:00,2.2,北西,3.3,北北西,7.5,83.7,0,0,0,21
84,2021-03-22T01:23:00,2.3,北北西,3.3,北北西,7.4,84.8,0,0,0,21
85,2021-03-22T01:24:00,2.3,北北西,3.8,北北西,7.5,85.8,0,0,0,21
86,2021-03-22T01:25:00,2.3,北北西,3.8,北北西,7.6,86.1,0,0,0,21
87,2021-03-22T01:26:00,2.3,北北西,3.8,北北西,7.6,85.7,0,0,0,21
88,2021-03-22T01:27:00,2.3,北北西,3.8,北北西,7.6,85.6,0,0,0,21
89,2021-03-22T01:28:00,2.3,北北西,3.8,北北西,7.5,85.9,0,0,0,21
90,2021-03-22T01:29:00,2.4,北北西,3.8,北北西,7.6,85.8,0,0,0,21
91,2021-03-22T01:30:00,2.3,北北西,3.8,北北西,7.7,84.7,0,0,0,21
92,2021-03-22T01:31:00,2.3,北北西,3.8,北北西,7.7,83.7,0,0,0,21
93,2021-03-22T01:32:00,2.2,北北西,3.8,北北西,7.7,83.3,0,0,0,21
94,2021-03-22T01:33:00,2.2,北北西,3.8,北北西,7.6,84,0,0,0,21
95,2021-03-22T01:34:00,2.2,北北西,3.6,北,7.5,84.8,0,0,0,21
96,2021-03-22T01:35:00,2.1,北北西,3.6,北,7.5,85.5,0,0,0,21
97,2021-03-22T01:36:00,2,北北西,3.5,北,7.4,86.2,0,0,0,21
98,2021-03-22T01:37:00,1.9,北北西,3.5,北,7.4,86.7,0,0,0,21
99,2021-03-22T01:38:00,1.9,北北西,3.1,北,7.4,87.1,0,0,0,21
100,2021-03-22T01:39:00,2,北北西,4.9,北西,7.4,87.6,0,0,0,21
101,2021-03-22T01:40:00,2.1,北北西,4.9,北西,7.6,87,0,0,0,21
102,2021-03-22T01:41:00,2.2,北北西,4.9,北西,7.7,85.4,0,0,0,21
103,2021-03-22T01:42:00,2.5,北北西,6.8,西北西,7.7,84.1,0,0,0,21
104,2021-03-22T01:43:00,2.6,北西,6.8,西北西,7.7,82.8,0,0,0,21
105,2021-03-22T01:44:00,2.8,北西,6.8,西北西,7.8,82,0,0,0,21
106,2021-03-22T01:45:00,3,北西,6.8,西北西,7.8,81.2,0,0,0,21
107,2021-03-22T01:46:00,3.2,北西,6.8,西北西,7.7,81.6,0,0,0,21
108,2021-03-22T01:47:00,3.4,北西,6.8,西北西,7.6,82.3,0,0,0,21
109,2021-03-22T01:48:00,3.5,北西,6.8,西北西,7.7,82.2,0,0,0,21
110,2021-03-22T01:49:00,3.7,西北西,6.8,西北西,7.7,81.2,0,0,0,21
111,2021-03-22T01:50:00,3.8,西北西,6.8,西北西,7.7,81.2,0,0,0,21
112,2021-03-22T01:51:00,3.9,西北西,6.8,西北西,7.6,81.1,0,0,0,21
113,2021-03-22T01:52:00,3.8,北西,6.4,西北西,7.6,81.6,0,0,0,21
114,2021-03-22T01:53:00,3.7,北西,6.4,西北西,7.6,82.1,0,0,0,21
115,2021-03-22T01:54:00,3.7,北西,6.4,西北西,7.6,82.3,0,0,0,21
116,2021-03-22T01:55:00,3.6,北西,6.4,西北西,7.6,82.5,0,0,0,21
117,2021-03-22T01:56:00,3.7,北西,6.4,西北西,7.6,82.1,0,0,0,21
118,2021-03-22T01:57:00,3.7,北西,6.4,西北西,7.5,81.9,0,0,0,21
119,2021-03-22T01:58:00,3.8,北西,6.4,西北西,7.5,82.2,0,0,0,21
120,2021-03-22T01:59:00,3.7,北北西,6.4,西北西,7.5,81.7,0,0,0,21
121,2021-03-22T02:00:00,3.7,北北西,6.7,北北西,7.5,81.6,0,0,0,21
122,2021-03-22T02:01:00,3.6,北北西,6.7,北北西,7.5,82.1,0,0,0,21
123,2021-03-22T02:02:00,3.6,北北西,6.7,北北西,7.4,82,0,0,0,21
124,2021-03-22T02:03:00,3.8,北北西,6.7,北北西,7.4,81.1,0,0,0,21
125,2021-03-22T02:04:00,3.7,北西,6.7,北北西,7.4,80.9,0,0,0,21
126,2021-03-22T02:05:00,3.6,北西,6.7,北北西,7.3,81.4,0,0,0,21
127,2021-03-22T02:06:00,3.5,北西,6.7,北北西,7.2,82.2,0,0,0,21
128,2021-03-22T02:07:00,3.4,北西,6.7,北北西,7.2,82.9,0,0,0,21
129,2021-03-22T02:08:00,3.2,北北西,6.7,北北西,7.1,83.7,0,0,0,21
130,2021-03-22T02:09:00,3,北北西,6.7,北北西,7.1,83.9,0,0,0,21
131,2021-03-22T02:10:00,2.8,北北西,6.4,北西,7.2,83.9,0,0,0,21
132,2021-03-22T02:11:00,2.7,北北西,6.4,北西,7.1,83.2,0,0,0,21
133,2021-03-22T02:12:00,2.7,北北西,6.4,北西,7.1,83,0,0,0,21
134,2021-03-22T02:13:00,2.5,北北西,5,北,7.1,83.3,0,0,0,21
135,2021-03-22T02:14:00,2.3,北北西,5,北,7,84.3,0,0,0,21
136,2021-03-22T02:15:00,2.3,北北西,5,北,7,84.6,0,0,0,21
137,2021-03-22T02:16:00,2.3,北,5,北,7,84.4,0,0,0,21
138,2021-03-22T02:17:00,2.3,北,5,北,7,85.1,0,0,0,21
139,2021-03-22T02:18:00,2.1,北,4.9,北北西,7,85,0,0,0,21
140,2021-03-22T02:19:00,2.2,北,4.9,北北西,7,85.3,0,0,0,21
141,2021-03-22T02:20:00,2.2,北,4.9,北北西,6.9,85.1,0,0,0,21
142,2021-03-22T02:21:00,2.2,北,4.9,北北西,7,85.6,0,0,0,21
143,2021-03-22T02:22:00,2,北,4.9,北北西,6.9,85.6,0,0,0,21
144,2021-03-22T02:23:00,1.9,北,4.9,北北西,6.9,85.5,0,0,0,21
145,2021-03-22T02:24:00,1.9,北,4,北北西,6.9,85.7,0,0,0,21
146,2021-03-22T02:25:00,1.9,北,4,北北西,6.9,85.7,0,0,0,21
147,2021-03-22T02:26:00,1.8,北,4,北北西,6.9,85.8,0,0,0,21
148,2021-03-22T02:27:00,1.8,北,4,北北西,6.9,85.8,0,0,0,21
149,2021-03-22T02:28:00,1.7,北,4,北北西,6.9,85.6,0,0,0,21
150,2021-03-22T02:29:00,1.6,北,2.8,北,6.9,85.7,0,0,0,21
151,2021-03-22T02:30:00,1.6,北,2.8,北,6.8,86,0,0,0,21
152,2021-03-22T02:31:00,1.5,北,2.8,北,6.8,86.4,0,0,0,21
153,2021-03-22T02:32:00,1.4,北,2.8,北,6.8,87.1,0,0,0,21
154,2021-03-22T02:33:00,1.4,北,2.8,北,6.7,87.5,0,0,0,21
155,2021-03-22T02:34:00,1.4,北,2.8,北,6.7,88.1,0,0,0,21
156,2021-03-22T02:35:00,1.3,北,2.4,北,6.7,88.5,0,0,0,21
157,2021-03-22T02:36:00,1.3,北,2.4,北,6.7,89,0,0,0,21
158,2021-03-22T02:37:00,1.3,北,2.4,北,6.6,89.1,0,0,0,21
159,2021-03-22T02:38:00,1.3,北,2.4,北,6.6,89.4,0,0,0,21
160,2021-03-22T02:39:00,1.1,北,2.4,北,6.6,89.9,0,0,0,21
161,2021-03-22T02:40:00,1.1,北,2.1,北北東,6.5,89.8,0,0,0,21
162,2021-03-22T02:41:00,1.1,北,2.1,北北東,6.4,90.1,0,0,0,21
163,2021-03-22T02:42:00,1.1,北,2.1,北北東,6.4,90.4,0,0,0,21
164,2021-03-22T02:43:00,1.2,北,2.3,北西,6.4,90.8,0,0,0,21
165,2021-03-22T02:44:00,1.3,北北西,2.3,北西,6.4,91.2,0,0,0,21
166,2021-03-22T02:45:00,1.3,北北西,2.3,北西,6.4,91.4,0,0,0,21
167,2021-03-22T02:46:00,1.3,北北西,2.3,北西,6.4,91.7,0,0,0,21
168,2021-03-22T02:47:00,1.3,北北西,2.3,北西,6.5,92.2,0,0,0,21
169,2021-03-22T02:48:00,1.3,北西,2.3,北西,6.4,91.9,0,0,0,21
170,2021-03-22T02:49:00,1.5,北西,3.2,北北西,6.5,91.9,0,0,0,21
171,2021-03-22T02:50:00,1.6,北西,3.2,北北西,6.5,91.9,0,0,0,21
172,2021-03-22T02:51:00,1.7,北西,3.2,北北西,6.5,91.8,0,0,0,21
173,2021-03-22T02:52:00,1.8,北北西,3.2,北北西,6.5,91.9,0,0,0,21
174,2021-03-22T02:53:00,1.8,北北西,3.2,北北西,6.5,92,0,0,0,21
175,2021-03-22T02:54:00,1.9,北北西,3.7,北西,6.7,91.7,0,0,0,21
176,2021-03-22T02:55:00,2,北北西,3.7,北西,6.7,90.8,0,0,0,21
177,2021-03-22T02:56:00,2,北北西,3.7,北西,6.7,90,0,0,0,21
178,2021-03-22T02:57:00,2.2,北北西,3.7,北西,6.7,89.2,0,0,0,21
179,2021-03-22T02:58:00,2.3,北北西,3.7,北西,6.7,88.5,0,0,0,21
180,2021-03-22T02:59:00,2.2,北北西,3.7,北西,6.7,88.5,0,0,0,21
181,2021-03-22T03:00:00,2.2,北北西,3.7,北西,6.7,88.6,0,0,0,21
182,2021-03-22T03:01:00,2.1,北,3.7,北西,6.6,89,0,0,0,21
183,2021-03-22T03:02:00,2.1,北,3.7,北西,6.6,89.3,0,0,0,21
184,2021-03-22T03:03:00,2.1,北,3.7,北西,6.7,89.6,0,0,0,21
185,2021-03-22T03:04:00,2,北,3.6,北北西,6.7,89.3,0,0,0,21
186,2021-03-22T03:05:00,2.1,北,3.6,北北西,6.7,89,0,0,0,21
187,2021-03-22T03:06:00,2.1,北,4.2,北,6.7,88.7,0,0,0,21
188,2021-03-22T03:07:00,2.2,北,4.2,北,6.7,88.3,0,0,0,21
189,2021-03-22T03:08:00,2.2,北,4.2,北,6.7,88.1,0,0,0,21
190,2021-03-22T03:09:00,2.4,北,4.2,北,6.6,87.6,0,0,0,21
191,2021-03-22T03:10:00,2.3,北,4.2,北,6.7,87.4,0,0,0,21
192,2021-03-22T03:11:00,2.3,北,4.2,北,6.7,87,0,0,0,21
193,2021-03-22T03:12:00,2.2,北,4.2,北,6.7,85.8,0,0,0,21
194,2021-03-22T03:13:00,2.3,北,4.4,北北西,6.7,85.5,0,0,0,21
195,2021-03-22T03:14:00,2.4,北北西,4.4,北北西,6.7,85.8,0,0,0,21
196,2021-03-22T03:15:00,2.4,北北西,4.4,北北西,6.6,86.4,0,0,0,21
197,2021-03-22T03:16:00,2.4,北北西,4.9,北北西,6.6,86.9,0,0,0,21
198,2021-03-22T03:17:00,2.4,北北西,4.9,北北西,6.5,87.2,0,0,0,21
199,2021-03-22T03:18:00,2.5,北北西,4.9,北北西,6.5,87.4,0,0,0,21
200,2021-03-22T03:19:00,2.5,北北西,4.9,北北西,6.6,87.6,0,0,0,21
201,2021-03-22T03:20:00,2.7,北北西,4.9,北北西,6.5,87.3,0,0,0,21
202,2021-03-22T03:21:00,3,北北西,5.6,北北西,6.5,86.9,0,0,0,21
203,2021-03-22T03:22:00,3.1,北北西,5.6,北北西,6.5,86.5,0,0,0,21
204,2021-03-22T03:23:00,3.2,北北西,5.6,北北西,6.5,85.9,0,0,0,21
205,2021-03-22T03:24:00,3.2,北北西,5.6,北北西,6.5,85.9,0,0,0,21
206,2021-03-22T03:25:00,3.3,北北西,5.6,北北西,6.5,86.1,0,0,0,21
207,2021-03-22T03:26:00,3.4,北北西,5.6,北北西,6.5,86.2,0,0,0,21
208,2021-03-22T03:27:00,3.3,北北西,5.6,北北西,6.6,85.8,0,0,0,21
209,2021-03-22T03:28:00,3.3,北北西,5.6,北北西,6.6,85.7,0,0,0,21
210,2021-03-22T03:29:00,3.4,北北西,5.6,北北西,6.5,85.7,0,0,0,21
211,2021-03-22T03:30:00,3.4,北北西,5.6,北北西,6.5,85.4,0,0,0,21
212,2021-03-22T03:31:00,3.4,北北西,5.1,北西,6.5,85.1,0,0,0,21
213,2021-03-22T03:32:00,3.5,北西,5.2,西北西,6.5,84.9,0,0,0,21
214,2021-03-22T03:33:00,3.5,北西,5.2,西北西,6.5,84.3,0,0,0,21
215,2021-03-22T03:34:00,3.4,北西,5.2,西北西,6.5,83.6,0,0,0,21
216,2021-03-22T03:35:00,3.4,北西,5.2,西北西,6.5,83.4,0,0,0,21
217,2021-03-22T03:36:00,3.4,北西,5.2,西北西,6.5,83.4,0,0,0,21
218,2021-03-22T03:37:00,3.4,北西,5.2,西北西,6.4,83.3,0,0,0,21
219,2021-03-22T03:38:00,3.5,北西,5.6,北北西,6.4,83.5,0,0,0,21
220,2021-03-22T03:39:00,3.6,北西,5.6,北北西,6.5,83.6,0,0,0,21
221,2021-03-22T03:40:00,3.6,北西,5.6,北北西,6.5,83.8,0,0,0,21
222,2021-03-22T03:41:00,3.5,北西,5.6,北北西,6.4,84.4,0,0,0,21
223,2021-03-22T03:42:00,3.3,北西,5.6,北北西,6.4,85.5,0,0,0,21
224,2021-03-22T03:43:00,3.3,北北西,5.6,北北西,6.4,86.5,0,0,0,21
225,2021-03-22T03:44:00,3.2,北北西,5.6,北北西,6.3,87,0,0,0,21
226,2021-03-22T03:45:00,3.1,北北西,5.6,北北西,6.3,87.3,0,0,0,21
227,2021-03-22T03:46:00,2.9,北北西,5.6,北北西,6.3,87.2,0,0,0,21
228,2021-03-22T03:47:00,2.9,北北西,5.6,北北西,6.3,87.1,0,0,0,21
229,2021-03-22T03:48:00,2.7,北北西,5.2,北北西,6.3,86.6,0,0,0,21
230,2021-03-22T03:49:00,2.4,北北西,5.2,北北西,6.3,86.1,0,0,0,21
231,2021-03-22T03:50:00,2.2,北北西,3.7,北西,6.4,86,0,0,0,21
232,2021-03-22T03:51:00,2.1,北北西,3.7,北西,6.4,85.6,0,0,0,21
233,2021-03-22T03:52:00,2.1,北北西,3.7,北西,6.4,85.5,0,0,0,21
234,2021-03-22T03:53:00,2.2,北北西,5.1,北北西,6.4,85,0,0,0,21
235,2021-03-22T03:54:00,2.3,北北西,5.1,北北西,6.4,84.4,0,0,0,21
236,2021-03-22T03:55:00,2.4,北北西,5.1,北北西,6.5,83.5,0,0,0,21
237,2021-03-22T03:56:00,2.7,北北西,5.9,北北西,6.6,81.4,0,0,0,21
238,2021-03-22T03:57:00,2.8,北北西,5.9,北北西,6.6,79.9,0,0,0,21
239,2021-03-22T03:58:00,2.7,北北西,5.9,北北西,6.5,80.6,0,0,0,21
240,2021-03-22T03:59:00,2.8,北北西,5.9,北北西,6.5,81.3,0,0,0,21
241,2021-03-22T04:00:00,3.1,北北西,6.9,北北西,6.5,81,0,0,0,21
242,2021-03-22T04:01:00,3.4,北北西,6.9,北北西,6.7,78.8,0,0,0,21
243,2021-03-22T04:02:00,3.6,北北西,6.9,北北西,6.6,77.5,0,0,0,21
244,2021-03-22T04:03:00,3.6,北北西,6.9,北北西,6.6,78.1,0,0,0,21
245,2021-03-22T04:04:00,3.6,北西,6.9,北北西,6.6,77.9,0,0,0,21
246,2021-03-22T04:05:00,3.5,北西,6.9,北北西,6.7,77.2,0,0,0,21
247,2021-03-22T04:06:00,3.4,北西,6.9,北北西,6.6,77.3,0,0,0,21
248,2021-03-22T04:07:00,3.3,北西,6.9,北北西,6.6,77.5,0,0,0,21
249,2021-03-22T04:08:00,3.3,北西,6.9,北北西,6.5,78,0,0,0,21
250,2021-03-22T04:09:00,3.3,北西,6.9,北北西,6.5,78.5,0,0,0,21
